Weather History for Cadillac, MI

Change the Weather History Date:

Thursday, November 21, 2013

  Actual Average Record
Temperature  
Mean Temperature 37 °F -  
Max Temperature 41 °F 38 °F 59 °F (1982)
Min Temperature 33 °F 24 °F 0 °F (1949)
Degree Days  
Heating Degree Days 28    
Moisture  
Dew Point 35 °F    
Average Humidity 89    
Maximum Humidity 100    
Minimum Humidity 63    
Precipitation  
Precipitation 0.00 in - - ()
Sea Level Pressure  
Sea Level Pressure 30.15 in    
Wind  
Wind Speed 3 mph (SSE)    
Max Wind Speed 8 mph    
Max Gust Speed -    
Visibility 7 miles    
Events Rain , Snow    
Averages and records for this station are not official NWS values.
T = Trace of Precipitation, MM = Missing Value Source: NWS Daily Summary

Daily Weather History Graph

Daily Weather History Graph

Search for Another Location

Airport:

Trip Planner

Search our weather history database for the weather conditions in past years. The results will help you decide how hot, cold, wet, or windy it might be!

Date:

Astronomy

Nov. 21, 2013 Rise Set
Actual Time 7:45 AM EST 5:09 PM EST
Civil Twilight 7:13 AM EST 5:41 PM EST
Nautical Twilight 6:38 AM EST 6:16 PM EST
Astronomical Twilight 6:03 AM EST 6:51 PM EST
Moon 8:46 PM EST (11/21) 10:50 AM EST (11/21)
Length of Visible Light 10h 27m
Length of Day
9h 23m
Waning Gibbous, 85% of the Moon is Illuminated
Nov 21
Waning Gibbous
Nov 25
Last Quarter
Dec 2
New
Dec 9
First Quarter
Dec 17
Full

Hourly Weather History & Observations

Time (EST) Temp. Windchill Dew Point Humidity Pressure Visibility Wind Dir Wind Speed Gust Speed Precip Events Conditions
12:15 AM 36.1 °F 31.4 °F 24.8 °F 63% 30.17 in 10.0 mi SSE 5.8 mph - N/A   Overcast
12:35 AM 36.1 °F 29.9 °F 25.2 °F 64% 30.17 in 10.0 mi SSE 8.1 mph - N/A   Overcast
12:54 AM 36.1 °F 32.3 °F 25.3 °F 65% 30.17 in 10.0 mi SSE 4.6 mph - N/A   Overcast
1:15 AM 36.1 °F 31.4 °F 25.7 °F 66% 30.17 in 10.0 mi SSE 5.8 mph - N/A   Overcast
1:35 AM 36.1 °F 31.4 °F 26.2 °F 67% 30.17 in 10.0 mi SSE 5.8 mph - N/A   Overcast
1:54 AM 36.1 °F 31.4 °F 27.9 °F 72% 30.17 in 10.0 mi South 5.8 mph - N/A   Overcast
2:15 AM 36.1 °F 29.9 °F 28.2 °F 73% 30.17 in 10.0 mi South 8.1 mph - N/A   Overcast
2:35 AM 36.1 °F 29.9 °F 30.7 °F 81% 30.18 in 7.0 mi South 8.1 mph - N/A Snow Light Snow
2:54 AM 36.1 °F 31.4 °F 32.4 °F 86% 30.17 in 5.0 mi South 5.8 mph - N/A Snow Light Snow
3:15 AM 33.8 °F 30.8 °F 31.1 °F 90% 30.17 in 5.0 mi South 3.5 mph - N/A Snow Light Snow
3:35 AM 33.8 °F 30.8 °F 31.1 °F 90% 30.17 in 2.5 mi South 3.5 mph - N/A Snow Light Snow
3:54 AM 33.8 °F 30.8 °F 31.6 °F 92% 30.16 in 3.0 mi SSE 3.5 mph - N/A Snow Light Snow
4:15 AM 33.8 °F 28.6 °F 31.6 °F 92% 30.16 in 4.0 mi South 5.8 mph - N/A Snow Light Snow
4:35 AM 33.8 °F 29.6 °F 31.6 °F 92% 30.15 in 4.0 mi SSE 4.6 mph - N/A Snow Light Snow
4:54 AM 35.6 °F 31.7 °F 33.3 °F 91% 30.15 in 5.0 mi SSE 4.6 mph - N/A Snow Light Snow
5:15 AM 36.1 °F 32.3 °F 33.8 °F 91% 30.14 in 5.0 mi SSE 4.6 mph - N/A Snow Light Snow
5:35 AM 36.1 °F 33.5 °F 33.8 °F 91% 30.14 in 5.0 mi SSE 3.5 mph - N/A   Light Drizzle
5:54 AM 36.1 °F 33.5 °F 33.8 °F 91% 30.13 in 5.0 mi SE 3.5 mph - N/A   Overcast
6:15 AM 36.1 °F - 33.8 °F 91% 30.14 in 5.0 mi Calm Calm - N/A   Overcast
6:35 AM 36.1 °F 33.5 °F 33.8 °F 91% 30.13 in 4.0 mi ESE 3.5 mph - N/A   Overcast
6:54 AM 36.1 °F 33.5 °F 33.8 °F 91% 30.14 in 4.0 mi ESE 3.5 mph - N/A   Overcast
7:15 AM 36.1 °F 33.5 °F 33.8 °F 91% 30.14 in 4.0 mi SE 3.5 mph - N/A   Overcast
7:35 AM 36.1 °F - 33.8 °F 91% 30.14 in 5.0 mi Calm Calm - N/A   Overcast
7:54 AM 36.1 °F - 33.8 °F 91% 30.14 in 4.0 mi Calm Calm - N/A   Overcast
8:15 AM 36.1 °F - 33.8 °F 91% 30.14 in 3.0 mi Calm Calm - N/A   Overcast
8:35 AM 36.1 °F - 33.8 °F 91% 30.15 in 3.0 mi Calm Calm - N/A   Overcast
8:54 AM 36.1 °F 33.5 °F 33.8 °F 91% 30.15 in 3.0 mi East 3.5 mph - N/A   Overcast
9:15 AM 36.1 °F - 33.8 °F 91% 30.15 in 3.0 mi Calm Calm - N/A   Overcast
9:34 AM 37.4 °F - 34.7 °F 90% 30.16 in 7.0 mi Calm Calm - N/A   Overcast
9:55 AM 38.7 °F - 35.6 °F 89% 30.16 in 10.0 mi Calm Calm - N/A   Overcast
10:15 AM 38.7 °F 36.3 °F 35.2 °F 87% 30.16 in 10.0 mi ESE 3.5 mph - N/A   Overcast
10:34 AM 38.7 °F 35.2 °F 35.1 °F 87% 30.17 in 10.0 mi SSE 4.6 mph - N/A   Overcast
10:54 AM - - - N/A% - - North - - N/A   Unknown
11:07 AM - - - N/A% - - North - - N/A   Unknown
11:34 AM - - - N/A% - - North - - N/A   Unknown
11:55 AM - - - N/A% - - North - - N/A   Unknown
12:15 PM 39.7 °F - 36.3 °F 88% 30.14 in 10.0 mi Calm Calm - N/A   Overcast
12:35 PM 39.4 °F 36.1 °F 36.5 °F 89% 30.14 in 10.0 mi South 4.6 mph - N/A   Overcast
12:55 PM 40.1 °F 38.0 °F 37.0 °F 89% 30.13 in 10.0 mi South 3.5 mph - N/A   Overcast
1:15 PM 40.3 °F 37.1 °F 37.4 °F 89% 30.14 in 10.0 mi South 4.6 mph - N/A   Overcast
1:35 PM 41.0 °F 38.0 °F 37.9 °F 89% 30.13 in 10.0 mi SSW 4.6 mph - N/A   Overcast
1:55 PM 41.0 °F 39.0 °F 38.1 °F 89% 30.13 in 10.0 mi SW 3.5 mph - N/A   Overcast
2:15 PM 41.4 °F - 38.3 °F 89% 30.13 in 10.0 mi Calm Calm - N/A   Overcast
2:35 PM 41.4 °F - 38.3 °F 89% 30.12 in 10.0 mi Calm Calm - N/A   Overcast
2:55 PM 41.2 °F - 38.3 °F 89% 30.14 in 10.0 mi Calm Calm - N/A   Overcast
3:15 PM 41.2 °F - 38.3 °F 89% 30.14 in 10.0 mi Calm Calm - N/A   Overcast
3:35 PM 41.2 °F 39.2 °F 38.5 °F 90% 30.13 in 10.0 mi South 3.5 mph - N/A   Overcast
3:55 PM 41.2 °F - 38.7 °F 91% 30.13 in 10.0 mi Calm Calm - N/A   Overcast
4:15 PM 41.0 °F - 38.5 °F 91% 30.13 in 10.0 mi Calm Calm - N/A   Overcast
4:35 PM 41.0 °F - 38.5 °F 91% 30.13 in 10.0 mi Calm Calm - N/A   Overcast
4:54 PM 41.0 °F - 38.3 °F 90% 30.13 in 10.0 mi Calm Calm - N/A   Overcast
5:15 PM 40.6 °F - 38.3 °F 91% 30.13 in 10.0 mi Calm Calm - N/A   Overcast
5:35 PM 40.6 °F - 38.5 °F 92% 30.13 in 10.0 mi Calm Calm - N/A   Overcast
5:54 PM 40.6 °F - 38.3 °F 91% 30.14 in 10.0 mi Calm Calm - N/A   Overcast
6:15 PM 40.3 °F - 38.5 °F 93% 30.14 in 10.0 mi Calm Calm - N/A   Overcast
6:35 PM 40.1 °F - 38.3 °F 93% 30.15 in 10.0 mi Calm Calm - N/A   Overcast
6:54 PM 40.1 °F - 38.3 °F 93% 30.15 in 10.0 mi Calm Calm - N/A   Overcast
7:15 PM 40.3 °F - 38.3 °F 93% 30.15 in 10.0 mi Calm Calm - N/A   Overcast
7:35 PM 40.6 °F - 38.5 °F 92% 30.15 in 10.0 mi Calm Calm - N/A   Overcast
7:55 PM 40.5 °F - 38.3 °F 92% 30.15 in 10.0 mi Calm Calm - N/A   Overcast
8:15 PM 39.6 °F - 38.3 °F 95% 30.15 in 10.0 mi Calm Calm - N/A Rain Light Rain
8:35 PM 39.7 °F - 38.3 °F 95% 30.14 in 10.0 mi Calm Calm - N/A   Drizzle
8:55 PM 38.7 °F - 38.7 °F 100% 30.14 in 7.0 mi Calm Calm - N/A   Drizzle
9:15 PM 38.7 °F - 38.7 °F 100% 30.14 in 5.0 mi Calm Calm - N/A   Drizzle
9:34 PM 38.7 °F - 38.7 °F 100% 30.14 in 4.0 mi Calm Calm - N/A   Light Drizzle
9:55 PM 38.5 °F - 38.5 °F 100% 30.14 in 4.0 mi Calm Calm - N/A   Overcast
10:15 PM 39.4 °F - 39.0 °F 99% 30.14 in 3.0 mi Calm Calm - N/A   Drizzle
10:34 PM 39.2 °F - 39.0 °F 99% 30.14 in 3.0 mi Calm Calm - N/A   Drizzle
10:55 PM 39.4 °F - 39.2 °F 99% 30.14 in 2.5 mi Calm Calm - N/A Rain Light Rain
11:15 PM 38.8 °F - 38.7 °F 99% 30.14 in 2.0 mi Calm Calm - N/A Rain Light Rain
11:34 PM 38.5 °F - 38.5 °F 100% 30.13 in 2.5 mi Calm Calm - N/A Rain Light Rain
11:55 PM 39.6 °F - 39.4 °F 99% 30.14 in 1.8 mi Calm Calm - N/A Rain Rain